Terminal Aerodrome Forecast
Issued by NWS Blacksburg, VA

Current Version | Previous Version | Graphics & Text | Print | Product List | Glossary On
Versions: 1 2 3 4 5 6 7 8 9 10 11 12 13 14 15 16 17 18 19 20 21 22 23 24 25 26 27 28 29 30 31 32 33 34 35 36 37 38 39 40 41 42 43 44 45 46
000
FTUS41 KRNK 141138
TAFBLF
TAF
KBLF 141138Z 1412/1512 09004KT 4SM BR SCT002 OVC030
      TEMPO 1412/1413 2SM BR OVC002
     FM141300 11004KT 6SM BR OVC012
     FM141600 15005KT P6SM OVC028
     FM141900 22006KT P6SM OVC045
     FM150000 21003KT P6SM OVC025
     FM150500 25003KT 2SM BR OVC009=

USA.gov is the U.S. government's official web portal to all federal, state and local government web resources and services.